Weather in Pishchanka

Ukraine / Vinnytsia Region     48°12′20″N   28°53′20″E
temp.,
°C
wind,
m/s
gust,
m/s
humid.,
%
clouds,
%
prec.,
mm/h
press.,
hPa
HPBL,
m
19 april, mon
mon1900:00+9n1161100 0.0 101710
03:00+8wsw1171100 0.0 101717
06:00+7nnw1280100 0.0 101625
09:00+8ene2284100 0.3 1016233
12:00+8e2286100 0.4 1016308
15:00+11ne126567 0.4 1015864
18:00+11ne456193 0.3 1013771
21:00+8ne38777 0.3 1014208
20 april, tue
tue2000:00+7ne488132 0.0 1013286
03:00+5nne3583100 0.0 1012102
06:00+5n3683100 0.0 1010110
09:00+8n477299 0.0 1010395
12:00+11n565796 0.4 10091514
15:00+12n565440 0.8 10091609
18:00+12nnw565764 0.2 10091203
21:00+7n48815 0.5 1011190
21 april, wed
wed2100:00+5n22835 0.0 101226
03:00+5nw228334 0.0 101233
06:00+4nw228541 0.0 101321
09:00+8w236882 0.0 1014358
12:00+12w335428 0.0 10141453
15:00+12sw435796 0.6 10141208
18:00+13wsw335417 0.4 10141326
21:00+9ssw226914 0.6 101514
22 april, thu
thu2200:00+8ssw337435 0.0 101628
03:00+7ssw33775 0.0 101629
06:00+6ssw33795 0.0 101736
09:00+11sw346837 0.0 1017304
12:00+15sw565136 0.0 10171388
15:00+17ssw664550 0.0 10162171
18:00+16ssw455049 0.0 10161017
21:00+13sse225767 0.0 101619
23 april, fri
fri2300:00+11s37605 0.0 1016118
03:00+9s410776 0.0 1015183
06:00+8ssw35841 0.0 101579
09:00+13ssw46665 0.0 1015342
12:00+16w7854100 0.0 10151509
15:00+11nw7868100 0.2 1017874
18:00+7n3581100 0.9 1018380
21:00+7nw227992 0.9 101940